sat.trackr.live / text

‹ back to catalog

HORYU-4

NORAD 41340 · 2016-012D

PAYLOAD ACTIVE UNKNOWN

§ Identity

Operator
Country
JPN
Launch date
2016-02-17
Launch site
TANSC
Launch vehicle
Mass (kg)
RCS (m²)
0.12

Purposes: tech_demo

External: N2YO · Heavens-Above · Gunter

§ Orbital elements

Epoch: 2026-07-01T19:00:28.190016Z

Period
88.50 min
Inclination
30.9791°
Eccentricity
0.0008659
Mean motion
16.27112331 rev/d
Perigee alt
194.6 km
Apogee alt
206.0 km
Semi-major
6,578.4 km
B*
1.1151e-3
RAAN
330.1929°
Arg perigee
346.1826°
Mean anomaly
13.8606°
Rev number
57,316

§ Raw data

HORYU-41 41340U 16012D   26182.79199294  .04204222 -38650-5  11151-2 0  99962 41340  30.9791 330.1929 0008659 346.1826  13.8606 16.27112331573161

JSON: /api/v1/satellites/41340 · /tle

For live sub-satellite position, see the globe view (requires WebGL).

§ Visibility from observer

Set your observer location to see the next 7 days of passes ≥ 10°. The values pass through the URL so the page stays shareable.

No JS? Fill the form by hand. The geolocation button needs JavaScript.

§ Radio — SatNOGS DB

ModeDescriptionDownlinkUplink
AFSK 1k2 AFSK TLM 437.375 MHz
CW CW Beacon 437.375 MHz
CW CW Beacon (current) 437.373 MHz
BPSK S-Band TLM 2.400 GHz

4 transmitters · refreshed weekly from db.satnogs.org